Dewpoint
51 51 51 51 51 51 52 52 52 52 52 52 53 53 53 54 54 52 31 21 32 70 69 67 64 64 64 63 63 61 55 49 45 48 49 57 56 58 59 57 57 58 59 60 64
51 51 51 51 51 51 51 52 52 52 52 52 52 53 53 54 50 37 33 42 47 73 66 63 61 63 61 61 62 59 54 49 48 48 43 55 56 58 57 56 56 58 61 63 64
51 51 51 51 51 51 51 51 52 51 52 52 52 53 53 53 36 16 39 49 65 72 65 63 63 61 59 62 61 60 54 53 48 47 45 51 56 57 57 55 55 57 60 62 63
51 51 51 51 51 51 51 51 51 51 51 52 52 52 53 52 8 44 66 56 70 66 65 63 61 57 55 56 60 56 56 54 48 47 47 51 56 56 57 55 56 58 60 61 62
51 51 51 51 51 51 51 51 52 51 51 51 52 52 50 36 13 57 61 62 70 64 60 59 59 55 50 54 54 56 50 48 46 45 41 46 54 54 56 56 57 60 60 60 61
51 51 52 51 51 50 51 51 51 50 50 51 51 51 44 4 7 41 54 65 65 61 57 58 58 54 47 35 47 44 42 32 36 37 33 43 48 55 55 58 59 60 60 60 60
50 50 51 51 50 50 50 50 49 50 51 51 51 50 44 9 17 30 55 59 62 55 55 53 51 51 36 29 32 31 25 25 26 28 29 40 50 52 55 58 59 60 60 60 61
49 49 50 50 50 50 49 49 50 55 54 52 52 49 24 26 26 22 46 47 60 51 45 46 42 45 30 27 25 25 25 20 23 25 33 40 28 49 57 57 58 59 59 60 61
50 50 50 50 50 49 48 49 52 54 55 53 50 48 17 39 27 20 26 38 49 48 39 39 34 33 28 24 20 21 20 22 23 25 39 44 31 41 56 56 57 58 59 59 61
50 50 50 49 49 48 48 48 53 54 52 53 49 38 29 24 34 28 19 40 38 39 35 32 31 30 27 22 15 17 18 21 23 25 29 39 39 45 55 56 56 58 58 59 60
50 50 50 49 48 47 44 38 31 33 33 42 42 34 34 28 38 33 17 21 30 33 26 31 25 25 24 22 19 17 17 20 21 22 30 34 38 45 54 56 56 57 57 58 59
50 50 50 49 48 47 38 30 31 32 29 29 29 32 38 34 26 30 19 13 19 22 27 28 24 23 24 25 22 18 16 19 21 21 21 24 28 33 50 55 56 57 57 58 59
49 49 49 48 48 40 38 34 37 37 31 26 28 26 25 27 27 26 19 15 17 18 21 22 22 25 26 24 20 17 14 16 20 20 20 23 23 30 48 53 56 57 58 58 58
49 49 48 48 34 40 30 37 39 39 22 20 19 22 24 25 24 25 26 20 17 17 19 18 23 25 25 23 20 12 15 16 19 20 19 26 21 32 36 49 53 55 57 58 58
49 48 47 48 42 38 32 40 40 36 2 21 14 20 24 22 19 23 24 23 16 16 20 18 24 24 24 23 23 14 18 17 19 19 19 19 22 24 41 45 51 54 56 57 58
48 48 48 43 43 41 41 41 36 18 9 19 13 14 19 19 16 23 23 26 23 18 18 17 23 24 24 24 25 24 22 22 22 20 17 19 19 21 27 35 44 51 55 57 58
48 47 46 44 33 38 40 34 17 14 19 19 20 21 20 17 14 21 22 23 20 16 18 19 20 21 22 20 22 21 18 15 13 14 15 19 20 21 26 35 33 46 52 55 58
47 46 41 41 41 39 37 18 12 14 18 22 23 22 17 23 19 20 20 20 23 17 15 16 16 20 20 20 18 20 16 9 8 8 11 22 18 20 24 26 36 40 47 52 56
47 40 37 37 36 38 30 10 14 23 27 25 23 22 22 23 23 22 20 18 23 22 15 15 15 21 20 19 19 19 18 15 11 16 12 12 16 22 25 25 31 36 39 46 51
41 38 33 35 36 36 25 20 26 30 29 25 23 24 23 23 22 22 23 30 26 30 30 23 19 20 21 20 19 18 19 15 13 6 6 10 16 13 23 24 28 33 36 39 43
39 32 29 36 33 28 23 24 26 30 31 27 25 24 24 24 24 22 27 28 30 31 32 28 19 17 21 18 18 17 17 16 14 11 3 2 4 21 24 31 28 30 33 36 40
37 25 33 33 23 26 22 25 26 27 33 29 26 26 26 26 24 25 29 30 28 33 31 31 20 18 19 21 19 19 17 17 13 17 12 8 5 19 21 26 32 29 32 37 43
35 33 35 31 24 26 27 26 24 29 31 33 28 28 29 28 23 28 29 32 28 33 32 29 25 21 19 18 17 19 18 18 16 16 15 8 7 13 19 24 24 24 27 35 41
35 27 29 31 31 26 26 24 25 29 32 36 34 28 27 27 29 26 27 29 29 33 36 31 26 24 19 20 23 22 18 19 16 15 15 15 11 15 20 23 24 27 31 33 37
36 31 33 26 26 28 28 27 26 25 27 31 33 33 29 26 26 27 28 28 28 31 28 29 24 25 25 24 23 23 21 21 18 18 16 15 15 17 19 21 22 25 31 31 33
35 32 36 32 31 30 27 25 26 25 27 24 32 31 32 30 26 27 29 29 27 29 26 28 23 28 22 21 21 21 22 22 21 20 19 18 17 18 22 24 25 22 23 26 32
40 40 37 34 30 30 26 25 25 27 27 29 33 30 26 27 29 28 28 28 27 26 27 27 26 24 18 22 22 19 20 20 20 21 20 17 18 20 19 20 24 26 29 29 29
Wind_Speed
24 24 24 24 23 23 23 23 23 23 22 22 21 21 20 20 18 3 13 13 13 19 26 24 17 18 17 8 2 1 3 3 3 2 3 10 5 8 8 15 6 9 7 17 28
24 25 25 25 25 25 24 23 23 24 24 22 20 20 19 19 7 16 18 16 19 31 26 30 23 22 9 8 6 5 4 4 4 4 6 8 10 12 7 14 8 9 14 26 29
25 26 26 26 26 26 26 25 24 24 24 22 19 18 17 15 7 9 1 22 28 35 25 24 25 17 10 9 10 8 7 7 4 3 6 5 10 9 11 11 14 20 25 31 29
26 26 27 27 27 28 28 27 28 26 24 21 18 14 15 3 7 2 12 24 29 28 28 21 23 15 10 10 15 7 14 14 5 5 2 3 9 9 15 1 15 20 28 32 32
28 28 28 28 29 29 29 29 28 28 25 20 15 9 4 4 13 1 16 21 29 26 32 26 29 17 16 12 10 19 13 12 14 15 15 8 17 11 19 9 13 23 29 31 29
28 28 29 30 31 31 31 31 30 30 26 18 11 4 2 14 5 11 20 29 30 27 28 24 20 15 12 5 19 8 10 14 11 14 10 12 11 9 11 12 17 24 30 31 31
29 29 29 30 32 34 34 33 33 30 25 17 11 8 5 20 6 9 21 26 34 28 32 24 12 19 6 5 14 13 14 18 13 8 8 9 8 20 12 19 20 21 26 29 28
29 31 31 32 34 35 36 33 30 19 9 10 15 10 11 5 12 6 11 10 22 22 24 21 11 21 5 2 2 4 6 12 8 9 7 13 21 17 19 23 21 23 25 27 30
29 31 32 33 36 38 37 31 14 10 13 20 12 6 9 5 7 16 15 13 22 20 12 15 12 11 8 14 11 10 12 13 13 10 3 14 15 7 24 23 24 28 28 28 28
29 31 34 36 37 39 37 17 3 9 11 2 7 4 9 5 7 10 17 21 13 20 13 8 13 16 14 20 25 15 17 15 15 5 13 16 20 4 23 26 27 27 28 29 30
31 32 34 38 38 41 18 1 3 2 3 10 4 6 5 4 8 8 19 22 10 19 21 21 20 35 30 24 20 10 21 14 14 15 8 14 14 14 18 23 24 27 28 29 31
31 33 33 36 40 24 7 6 7 7 17 18 29 25 23 3 4 13 26 23 21 24 19 14 36 27 21 19 22 23 25 19 10 7 5 7 11 11 19 28 31 29 30 32 28
31 32 34 34 39 5 6 8 8 6 8 12 10 10 10 15 8 20 32 18 31 29 36 33 12 25 24 22 25 30 31 25 15 1 4 8 15 10 12 20 21 26 27 28 30
31 31 34 38 6 11 2 8 12 2 6 7 6 5 9 10 12 18 26 19 13 35 27 27 26 28 30 31 29 30 25 21 18 11 20 6 21 9 13 20 21 24 28 30 31
33 31 32 17 8 9 8 17 16 4 8 5 4 8 10 15 1 13 23 13 28 26 21 25 29 23 33 33 27 23 15 21 18 16 13 19 15 19 4 13 22 27 30 31 33
35 34 32 2 3 8 13 19 3 4 12 2 5 5 7 13 3 4 19 15 8 16 28 25 10 30 23 23 27 14 11 10 6 11 25 26 19 26 20 20 17 23 28 30 32
34 36 20 6 8 20 14 4 6 10 7 4 3 5 4 3 9 7 25 35 25 25 24 28 18 13 20 21 23 27 20 12 16 23 28 17 21 30 13 21 24 23 29 32 34
38 32 10 5 13 15 7 4 12 3 5 10 8 13 3 3 2 3 21 34 28 23 23 29 26 27 20 24 19 34 30 15 19 21 19 9 20 18 22 24 23 22 24 26 29
30 12 6 4 18 6 4 9 3 8 10 15 15 4 1 2 4 2 9 28 27 16 16 28 26 10 25 15 29 19 37 30 10 1 7 20 21 15 11 24 23 24 21 22 27
17 9 7 15 11 3 2 4 4 14 19 9 5 7 5 7 2 1 4 6 8 3 5 7 9 17 26 25 29 20 24 17 20 20 17 13 13 21 25 26 25 25 24 24 24
5 7 14 26 3 4 3 6 7 10 17 8 8 9 6 6 6 3 6 9 8 7 5 4 7 5 21 25 28 15 29 13 16 12 14 13 16 9 19 26 29 28 28 26 25
6 5 16 18 11 4 7 14 9 11 10 6 8 7 5 6 5 3 3 6 14 8 1 4 5 18 21 13 27 32 24 29 19 14 19 13 13 4 18 16 21 24 21 16 19
7 5 6 10 7 11 12 8 7 14 12 9 8 10 7 5 3 5 5 4 14 11 6 4 5 17 13 15 10 27 30 28 26 13 22 21 7 14 6 1 5 10 16 13 13
5 6 4 5 2 9 13 7 10 12 6 7 10 7 9 2 4 2 4 4 10 9 8 2 1 13 24 15 2 8 10 29 32 30 28 33 23 8 5 8 13 14 16 14 13
5 3 2 7 7 13 10 5 11 11 7 9 3 13 12 4 4 3 8 7 5 10 7 4 0 3 2 4 5 8 12 13 21 30 32 29 35 27 24 25 25 15 11 14 16
4 3 2 8 8 10 5 4 10 13 11 9 6 15 15 7 8 7 11 5 3 7 6 6 1 2 6 10 12 14 15 15 18 22 20 27 31 18 8 19 27 30 28 24 23
1 3 3 4 8 4 4 7 14 16 9 5 8 17 18 10 12 15 14 16 16 10 5 5 1 2 7 5 11 19 28 20 19 17 18 31 22 17 19 23 23 27 27 26 25
Wind_Direction
355 353 351 347 344 342 338 335 330 327 326 325 326 327 330 330 323 168 249 224 183 158 142 146 160 160 165 170 161 80 285 256 249 181 59 159 154 154 128 142 157 171 149 148 154
352 350 347 344 340 337 333 330 326 322 319 320 322 324 327 333 313 269 241 202 171 153 155 160 164 161 172 181 187 191 231 224 227 183 23 187 181 151 145 155 164 150 124 142 155
348 346 343 340 336 332 328 325 319 315 312 313 316 319 323 328 302 254 271 196 173 163 164 166 153 161 172 178 186 191 229 235 225 209 325 196 179 163 148 182 189 176 153 157 164
345 342 339 336 333 329 324 319 315 310 306 305 308 315 318 295 258 353 324 167 169 164 153 161 163 168 185 190 201 227 241 244 266 287 271 222 169 188 188 140 182 168 165 165 173
343 339 337 334 330 325 320 315 311 307 300 295 296 305 323 226 246 169 121 151 160 166 164 171 174 176 190 199 182 232 264 264 261 264 278 223 198 191 203 176 154 158 167 176 180
341 337 335 332 327 323 319 316 311 303 291 281 268 254 205 246 228 186 145 157 166 172 174 174 188 182 192 187 207 208 247 284 284 263 249 215 226 198 206 163 146 166 174 180 186
340 337 334 331 327 323 321 319 313 302 279 258 226 185 209 242 133 148 164 178 173 178 180 186 173 189 186 204 239 249 282 290 271 273 245 200 207 220 175 166 155 173 178 181 191
339 337 334 333 328 323 323 322 317 312 285 203 179 172 242 235 236 245 172 170 198 186 190 189 190 204 212 298 205 228 229 256 267 241 235 194 266 214 178 170 171 172 180 189 193
338 336 335 335 330 326 325 322 315 44 103 127 133 195 251 125 208 209 191 175 170 186 186 177 187 206 188 222 239 220 229 234 259 228 164 202 274 242 183 184 179 178 185 193 196
338 337 336 335 331 329 327 323 190 97 116 148 102 232 247 221 172 163 186 153 158 173 191 176 198 215 215 205 213 215 221 235 246 183 208 221 247 304 188 193 192 188 188 195 200
339 338 338 333 332 330 334 342 314 185 249 226 198 265 297 290 145 166 166 174 130 170 185 193 198 211 214 218 226 233 229 229 248 242 238 239 250 226 198 206 203 197 193 199 208
340 339 338 332 332 330 337 64 65 303 300 255 246 251 258 348 209 163 162 168 184 193 178 179 220 210 214 214 221 225 236 233 246 258 272 245 247 245 208 209 209 201 198 201 206
340 340 336 334 329 10 358 92 3 327 262 284 221 233 224 196 231 187 176 187 187 188 194 201 216 202 200 208 215 226 229 228 234 291 236 271 257 229 221 227 219 215 210 209 204
339 340 333 336 339 341 76 337 339 252 283 262 224 244 163 150 233 213 196 185 185 203 197 218 205 199 203 213 208 225 224 235 233 240 245 218 264 235 224 218 217 215 210 211 209
337 337 332 339 297 329 318 328 324 174 287 117 143 152 157 182 70 202 190 202 204 191 186 201 199 196 206 209 201 222 205 217 228 234 250 234 249 251 197 223 220 219 215 210 211
334 332 333 342 280 276 306 314 178 222 244 121 119 165 164 223 240 104 189 206 198 194 211 206 208 201 206 211 203 200 184 172 182 232 245 236 235 252 223 223 228 224 219 214 212
331 325 328 308 319 331 317 302 196 226 345 18 7 353 295 219 214 178 187 189 184 186 196 207 198 197 204 195 197 196 178 184 212 220 239 231 228 239 225 218 230 216 217 214 212
329 322 324 253 298 322 320 219 224 353 339 355 334 312 217 350 198 211 187 193 205 203 188 197 211 202 191 200 191 200 199 202 211 227 236 196 237 236 223 222 228 233 224 214 210
327 333 328 328 324 306 324 229 345 24 342 327 321 295 242 28 329 339 192 205 200 207 208 202 216 200 201 185 188 188 210 214 249 145 240 226 247 264 231 214 218 224 220 216 215
331 330 319 336 333 309 259 280 352 10 342 328 319 360 337 356 18 29 142 3 221 261 289 192 203 204 192 188 199 193 182 180 211 226 234 226 240 237 199 210 213 222 224 224 223
17 347 351 340 295 35 41 329 315 335 347 327 330 314 325 348 341 32 35 51 5 334 343 200 223 153 187 199 180 185 192 203 203 219 225 247 243 206 222 210 209 215 219 221 223
6 358 348 344 38 7 2 321 305 338 350 327 311 319 309 331 330 39 93 50 359 341 168 26 207 213 202 188 216 203 196 196 199 201 230 260 248 244 220 215 217 221 228 225 229
349 302 337 4 40 357 339 320 321 345 345 353 337 353 336 330 307 50 41 2 5 22 21 9 216 199 223 219 204 218 215 207 218 218 211 215 203 235 208 145 209 264 256 237 227
348 343 338 37 86 356 342 326 340 341 20 347 318 355 346 336 359 25 24 13 345 11 357 321 51 234 218 221 77 204 196 212 220 228 230 231 240 209 247 256 269 266 263 259 246
13 354 350 319 336 327 332 298 327 356 341 348 359 19 3 304 304 10 15 346 40 5 359 13 76 346 318 313 312 268 253 236 229 235 235 243 242 242 252 276 285 286 275 283 273
334 326 293 286 289 312 326 321 322 339 327 327 319 358 348 355 339 320 350 5 9 348 10 357 268 331 288 284 282 274 258 253 244 246 253 257 259 264 288 257 258 257 268 270 268
266 264 250 273 308 280 304 323 307 323 304 297 309 327 315 314 323 308 293 276 275 298 315 327 268 225 255 315 305 266 245 241 245 240 240 246 250 251 252 246 252 254 250 247 254